File timestamp: Tue Sep  6 00:00:00 2016, Internal temp: 18.00537109375
1473120000.99, 0.00657154805958271, -0.123931258916855, 0.166172251105309, 32243, 31505, 23406, 165.341171264648
1473120001.998, 0.0121163753792644, -0.123482301831245, 0.165684312582016, 32244, 31502, 23388, NaN
1473120002.998, 0.016963467001915, -0.124232336878777, 0.165245190262794, 32239, 31510, 23400, NaN
1473120003.998, 0.0200296565890312, -0.124516174197197, 0.164664566516876, 32237, 31493, 23397, NaN
1473120004.998, 0.0198056269437075, -0.125247091054916, 0.164727941155434, 32249, 31514, 23385, NaN
1473120004.998, 0.0188291147351265, -0.124493896961212, 0.164902701973915, 32233, 31508, 23402, NaN
1473120006.002, 0.0172494109719992, -0.123811691999435, 0.164842769503593, 32236, 31498, 23402, NaN
1473120007.002, 0.0139119736850262, -0.12371064722538, 0.164852485060692, 32235, 31507, 23404, NaN
1473120008.002, 0.0120583027601242, -0.123525127768517, 0.164189532399178, 32235, 31511, 23403, NaN
1473120009.002, 0.0108303688466549, -0.123378269374371, 0.164056897163391, 32235, 31495, 23407, NaN
1473120010.002, 0.00987726449966431, -0.123060844838619, 0.164324536919594, 32241, 31505, 23394, NaN
1473120011.002, 0.00850339327007532, -0.122989788651466, 0.164136782288551, 32238, 31507, 23396, NaN
1473120012.002, 0.00859506707638502, -0.122886911034584, 0.164480671286583, 32236, 31517, 23396, NaN
1473120013.002, 0.0083564929664135, -0.123528815805912, 0.165068209171295, 32235, 31505, 23411, NaN
1473120014.002, 0.00782267097383738, -0.123838439583778, 0.16599178314209, 32236, 31513, 23399, NaN
1473120015.002, 0.00872796680778265, -0.124394476413727, 0.166783958673477, 32238, 31520, 23403, NaN
1473120016.002, 0.0102365892380476, -0.124262049794197, 0.167028650641441, 32238, 31524, 23397, NaN
1473120017.002, 0.0121115725487471, -0.124307535588741, 0.168114528059959, 32235, 31505, 23405, NaN
1473120018.002, 0.0153043894097209, -0.123899690806866, 0.16799721121788, 32239, 31513, 23408, NaN
1473120019.002, 0.0179040972143412, -0.123727314174175, 0.168204694986343, 32220, 31507, 23407, NaN
1473120020.002, 0.0196193773299456, -0.124446772038937, 0.168694227933884, 32234, 31511, 23394, NaN
1473120021.01, 0.0223314464092255, -0.124497480690479, 0.169077157974243, 32241, 31503, 23396, NaN
1473120022.01, 0.0246673841029406, -0.124723725020885, 0.169562384486198, 32228, 31509, 23387, NaN
1473120023.01, 0.0261667650192976, -0.124787010252476, 0.169360488653183, 32225, 31514, 23408, NaN
1473120023.01, 0.0276289880275726, -0.124770320951939, 0.169949591159821, 32233, 31505, 23397, NaN
1473120024.018, 0.0289844889193773, -0.124380454421043, 0.16989229619503, 32233, 31501, 23407, NaN
1473120025.018, 0.0302987806499004, -0.124180816113949, 0.169246464967728, 32250, 31512, 23384, NaN
1473120026.018, 0.0309827215969563, -0.124476477503777, 0.169007420539856, 32235, 31512, 23391, NaN
1473120027.018, 0.0313624180853367, -0.124655790627003, 0.169105365872383, 32227, 31510, 23408, NaN
1473120027.018, 0.0321256294846535, -0.124431580305099, 0.169050708413124, 32238, 31509, 23403, NaN
1473120028.024, 0.0316280052065849, -0.124697424471378, 0.168803527951241, 32237, 31507, 23387, NaN
1473120029.024, 0.0310055986046791, -0.124713376164436, 0.168424054980278, 32241, 31507, 23388, NaN
1473120030.024, 0.0297786332666874, -0.125110149383545, 0.16714183986187, 32249, 31506, 23389, NaN
1473120031.024, 0.0273026935756207, -0.125360369682312, 0.168029204010963, 32243, 31515, 23389, NaN
1473120032.024, 0.0252924431115389, -0.125556349754333, 0.167828127741814, 32240, 31490, 23408, NaN
1473120033.024, 0.0229038186371326, -0.125679343938828, 0.168073713779449, 32249, 31508, 23392, NaN
1473120034.024, 0.019729983061552, -0.125296890735626, 0.16753226518631, 32232, 31493, 23400, NaN
1473120035.024, 0.0169128831475973, -0.125917509198189, 0.167198851704597, 32227, 31507, 23414, NaN
1473120036.024, 0.0139552196487784, -0.126722484827042, 0.167051360011101, 32222, 31504, 23409, NaN
1473120037.024, 0.0113235795870423, -0.127296403050423, 0.167575091123581, 32237, 31514, 23391, NaN
1473120038.024, 0.00789203774183989, -0.127949848771095, 0.167331650853157, 32233, 31511, 23409, NaN
1473120039.024, 0.00391502864658833, -0.128024861216545, 0.167291924357414, 32239, 31508, 23395, NaN
1473120040.024, 0.00127079605590552, -0.128371626138687, 0.166619077324867, 32234, 31509, 23414, NaN
1473120041.024, -0.00089899345766753, -0.12846066057682, 0.166449278593063, 32226, 31505, 23410, NaN
1473120042.024, 0.00315087055787444, -0.128515765070915, 0.167402595281601, 32226, 31515, 23406, NaN
1473120043.024, 0.0114869102835655, -0.129361346364021, 0.167289033532143, 32235, 31507, 23401, NaN
1473120044.024, 0.023185845464468, -0.130061611533165, 0.166836500167847, 32244, 31507, 23392, NaN
1473120045.024, 0.0374194420874119, -0.129467248916626, 0.166621625423431, 32241, 31512, 23399, NaN
1473120046.024, 0.0529832616448402, -0.129908993840218, 0.167310938239098, 32224, 31508, 23397, NaN
1473120047.024, 0.0686372742056847, -0.129851847887039, 0.166289865970612, 32237, 31509, 23395, NaN
1473120048.032, 0.0842265486717224, -0.129392236471176, 0.166061952710152, 32244, 31494, 23388, NaN
1473120049.032, 0.0991409718990326, -0.130077093839645, 0.16576711833477, 32246, 31500, 23401, NaN
1473120050.032, 0.113280221819878, -0.129185870289803, 0.164970859885216, 32232, 31512, 23396, NaN
1473120051.032, 0.126500874757767, -0.129036620259285, 0.165342509746552, 32232, 31513, 23402, NaN
1473120051.032, 0.137199476361275, -0.129381000995636, 0.165245875716209, 32241, 31509, 23407, NaN
1473120052.04, 0.145872727036476, -0.129297077655792, 0.165633231401443, 32239, 31514, 23393, NaN
1473120053.04, 0.153696149587631, -0.129160806536674, 0.165483504533768, 32243, 31497, 23404, NaN
1473120054.04, 0.158753052353859, -0.130045622587204, 0.16554006934166, 32231, 31510, 23403, NaN
1473120055.04, 0.163260325789452, -0.129495158791542, 0.165215134620667, 32231, 31502, 23403, NaN
1473120055.04, 0.165666297078133, -0.130026817321777, 0.164477676153183, 32236, 31510, 23402, NaN
1473120056.046, 0.164707094430923, -0.129763767123222, 0.164744436740875, 32238, 31523, 23398, 167.012664794922
1473120057.046, 0.16159850358963, -0.129992052912712, 0.164667412638664, 32240, 31507, 23404, NaN
1473120058.046, 0.155407443642616, -0.129434883594513, 0.163937836885452, 32233, 31502, 23402, NaN
1473120059.046, 0.147774592041969, -0.129479318857193, 0.163710087537766, 32240, 31508, 23397, NaN
1473120059.05, 0.1392462849617, -0.129712805151939, 0.163355141878128, 32225, 31503, 23394, NaN
1473120060.052, 0.130624324083328, -0.129277765750885, 0.163168787956238, 32224, 31505, 23403, NaN
1473120061.052, 0.122064530849457, -0.127862259745598, 0.163730800151825, 32248, 31509, 23393, NaN
1473120062.052, 0.113455779850483, -0.127095490694046, 0.16330298781395, 32236, 31508, 23401, NaN
1473120063.052, 0.105253748595715, -0.126800745725632, 0.163140833377838, 32228, 31512, 23398, NaN
1473120063.052, 0.0969894081354141, -0.126607909798622, 0.162590503692627, 32229, 31507, 23402, NaN
1473120064.054, 0.0887041315436363, -0.127728804945946, 0.161612585186958, 32238, 31505, 23398, NaN
1473120065.054, 0.0804468095302582, -0.127021551132202, 0.162048518657684, 32232, 31504, 23397, NaN
1473120066.054, 0.0728943943977356, -0.126622647047043, 0.161421090364456, 32234, 31492, 23384, NaN
1473120067.054, 0.0653536319732666, -0.126753181219101, 0.16104419529438, 32237, 31503, 23397, NaN
1473120068.054, 0.0577309057116508, -0.126978918910027, 0.160026744008064, 32234, 31503, 23397, NaN
1473120069.054, 0.0497169122099876, -0.127568408846855, 0.159929499030113, 32248, 31505, 23388, NaN
1473120070.054, 0.0422979705035686, -0.126743480563164, 0.159067928791046, 32236, 31484, 23397, NaN
1473120071.054, 0.0350127965211868, -0.127100884914398, 0.158502489328384, 32236, 31501, 23391, NaN
1473120072.054, 0.0280877016484737, -0.126672863960266, 0.158551603555679, 32242, 31498, 23386, NaN
1473120073.054, 0.0221590604633093, -0.127233669161797, 0.158968731760979, 32223, 31506, 23403, NaN
1473120074.064, 0.0164887588471174, -0.126549005508423, 0.158391043543816, 32228, 31510, 23394, NaN
1473120075.064, 0.0097147636115551, -0.125957548618317, 0.158703476190567, 32235, 31496, 23401, NaN
1473120076.064, 0.00385061535052955, -0.126144871115685, 0.158912733197212, 32221, 31508, 23401, NaN
1473120076.064, -0.000959229480940849, -0.126102909445763, 0.159134119749069, 32252, 31499, 23390, NaN
1473120077.074, -0.00440872181206942, -0.126217812299728, 0.158415198326111, 32240, 31512, 23393, NaN
1473120078.074, -0.0074525885283947, -0.125973850488663, 0.158139809966087, 32236, 31507, 23396, NaN
1473120079.074, -0.00806252472102642, -0.125435367226601, 0.15832881629467, 32239, 31503, 23398, NaN
1473120080.074, -0.00836382433772087, -0.125243365764618, 0.158203184604645, 32237, 31511, 23403, NaN
1473120081.074, -0.00993954017758369, -0.124509193003178, 0.157998934388161, 32245, 31516, 23397, NaN
1473120082.074, -0.0113518368452787, -0.124532923102379, 0.157601669430733, 32238, 31499, 23401, NaN
1473120083.074, -0.0138600515201688, -0.1245281919837, 0.157524585723877, 32245, 31513, 23401, NaN
1473120084.074, -0.0165329892188311, -0.124313503503799, 0.157279178500175, 32246, 31509, 23396, NaN
1473120085.074, -0.0195766855031252, -0.124251887202263, 0.158060148358345, 32239, 31508, 23398, NaN
1473120086.074, -0.0214870553463697, -0.124168738722801, 0.157457679510117, 32231, 31507, 23401, NaN
1473120087.074, -0.0222083702683449, -0.124271534383297, 0.157762050628662, 32242, 31514, 23397, NaN
1473120088.074, -0.0221037715673447, -0.124625936150551, 0.158163458108902, 32243, 31510, 23402, NaN
1473120089.074, -0.0208833180367947, -0.124745599925518, 0.15804386138916, 32242, 31508, 23399, NaN
1473120090.074, -0.0194564759731293, -0.124064087867737, 0.158437490463257, 32247, 31505, 23399, NaN
1473120091.074, -0.0165965054184198, -0.123004116117954, 0.158405378460884, 32235, 31509, 23400, NaN
1473120092.074, -0.0130535177886486, -0.122993752360344, 0.157261043787003, 32251, 31521, 23392, NaN
1473120093.074, -0.010367950424552, -0.122928641736507, 0.157861053943634, 32231, 31510, 23402, NaN
1473120094.074, -0.00676906481385231, -0.12337064743042, 0.157392874360085, 32222, 31502, 23412, NaN
1473120095.074, -0.00414101919159293, -0.123516388237476, 0.157125279307365, 32236, 31497, 23400, NaN
1473120096.074, -0.00237189955078065, -0.122856520116329, 0.157504767179489, 32240, 31515, 23388, NaN
1473120097.074, -0.000363235478289425, -0.122195303440094, 0.156849533319473, 32241, 31512, 23391, NaN
1473120098.074, 0.000492028251755983, -0.121683418750763, 0.156558737158775, 32225, 31515, 23405, NaN
1473120099.074, 4.0997128962772e-06, -0.121440351009369, 0.156071200966835, 32230, 31489, 23400, NaN
1473120100.074, 0.000883956905454397, -0.121351793408394, 0.156201481819153, 32240, 31506, 23399, NaN
1473120101.074, 0.00121347175445408, -0.120981954038143, 0.155825033783913, 32242, 31511, 23404, NaN
1473120102.082, 0.00197188276797533, -0.121152639389038, 0.154905810952187, 32227, 31507, 23405, NaN
1473120103.082, 0.00478949910029769, -0.121866784989834, 0.15532174706459, 32252, 31503, 23399, NaN
1473120104.082, 0.00719226105138659, -0.12100388109684, 0.155456632375717, 32236, 31513, 23388, NaN
1473120105.082, 0.0106263943016529, -0.120880678296089, 0.15558560192585, 32225, 31521, 23407, NaN
1473120105.082, 0.0155409323051572, -0.121197298169136, 0.156102046370506, 32237, 31506, 23403, NaN
1473120106.09, 0.0193606726825237, -0.121111653745174, 0.155914932489395, 32237, 31509, 23403, NaN
1473120107.09, 0.0242491886019707, -0.120359688997269, 0.156435087323189, 32235, 31508, 23399, NaN
1473120108.09, 0.0296829883009195, -0.120453618466854, 0.156597897410393, 32245, 31513, 23388, NaN
1473120109.09, 0.0334688685834408, -0.120641753077507, 0.156914934515953, 32240, 31501, 23385, NaN
1473120109.09, 0.0377541966736317, -0.120627395808697, 0.156921803951263, 32250, 31507, 23383, NaN
1473120110.096, 0.0406782291829586, -0.12114480137825, 0.156959116458893, 32245, 31508, 23385, NaN
1473120111.096, 0.0395159833133221, -0.121054537594318, 0.157062813639641, 32252, 31504, 23389, 165.987716674805
1473120112.096, 0.0210722479969263, -0.120797879993916, 0.157269492745399, 32228, 31492, 23396, NaN
1473120113.096, 0.00567808747291565, -0.121420562267303, 0.157471433281898, 32238, 31502, 23395, NaN
1473120113.096, -0.00693827960640192, -0.120864026248455, 0.157477170228958, 32236, 31500, 23407, NaN
1473120114.1, -0.0170411951839924, -0.120648548007011, 0.158144518733025, 32237, 31503, 23395, NaN
1473120115.1, -0.0248864814639091, -0.120466850697994, 0.158635303378105, 32235, 31500, 23404, NaN
1473120116.1, -0.0307203605771065, -0.120127871632576, 0.158323600888252, 32224, 31504, 23405, NaN
1473120117.1, -0.034778468310833, -0.120556846261024, 0.158029943704605, 32232, 31502, 23397, NaN
1473120117.1, -0.0372849479317665, -0.120247527956963, 0.158099606633186, 32219, 31525, 23404, NaN
1473120118.102, -0.0384516566991806, -0.120520032942295, 0.158087313175201, 32245, 31505, 23389, NaN
1473120119.102, -0.0384775213897228, -0.120056241750717, 0.157473370432854, 32223, 31514, 23398, NaN
1473120120.102, -0.0375480391085148, -0.119606032967567, 0.157474607229233, 32230, 31512, 23402, NaN
1473120121.102, -0.0358349159359932, -0.119236290454865, 0.157872721552849, 32234, 31510, 23396, NaN
1473120121.102, -0.0334958657622337, -0.119225718080997, 0.157873645424843, 32237, 31499, 23405, NaN
1473120122.104, -0.0306745655834675, -0.119635373353958, 0.157660514116287, 32222, 31512, 23398, NaN
1473120123.104, -0.0275007132440805, -0.119412012398243, 0.158038586378098, 32238, 31501, 23398, NaN
1473120124.104, -0.0240902751684189, -0.119202554225922, 0.157570779323578, 32219, 31501, 23397, NaN
1473120125.104, -0.0205457992851734, -0.1187599375844, 0.157305598258972, 32239, 31514, 23404, NaN
1473120126.114, -0.0169568676501513, -0.119623966515064, 0.157022804021835, 32233, 31512, 23391, NaN
1473120127.114, -0.0134006422013044, -0.119481764733791, 0.156905129551888, 32234, 31505, 23395, NaN
1473120128.114, -0.00994247011840343, -0.119378872215748, 0.156227514147758, 32240, 31507, 23391, NaN
1473120129.114, -0.00663658324629068, -0.119587384164333, 0.156638368964195, 32240, 31509, 23411, NaN
1473120130.114, -0.00352683220990002, -0.119898460805416, 0.156196311116219, 32224, 31506, 23403, NaN
1473120131.114, -0.000694209535140544, -0.119096726179123, 0.157237261533737, 32241, 31503, 23400, NaN
1473120132.114, 0.00165146728977561, -0.119697950780392, 0.157258599996567, 32236, 31501, 23394, NaN
1473120132.472, 0.00247384468093514, -0.119379349052906, 0.157386526465416, 32237, 31506, 23414, NaN
1473120133.472, 0.00412779906764627, -0.1185637190938, 0.157354444265366, 32230, 31512, 23401, NaN
1473120134.472, 0.00533453654497862, -0.118320137262344, 0.157405957579613, 32230, 31500, 23407, NaN
1473120135.472, 0.00600321544334292, -0.118436172604561, 0.157391846179962, 32250, 31502, 23384, NaN
1473120136.472, 0.00735945254564285, -0.118433907628059, 0.157548815011978, 32244, 31513, 23390, NaN
1473120137.472, 0.00698177143931389, -0.118452996015549, 0.157092839479446, 32236, 31515, 23398, NaN
1473120138.472, 0.00699871126562357, -0.118510775268078, 0.157267242670059, 32248, 31497, 23401, NaN
1473120139.472, 0.00773309078067541, -0.118812493979931, 0.157967582345009, 32241, 31524, 23387, NaN
1473120140.472, 0.00818573962897062, -0.117998123168945, 0.15789683163166, 32229, 31507, 23391, NaN
1473120141.472, 0.00897275935858488, -0.117652393877506, 0.15842941403389, 32219, 31512, 23402, NaN
1473120142.472, 0.00849602743983269, -0.116678692400455, 0.158610731363297, 32240, 31506, 23406, NaN
1473120143.472, 0.00735687930136919, -0.117745466530323, 0.158136278390884, 32237, 31502, 23387, NaN
1473120144.472, 0.00699616177007556, -0.117875352501869, 0.158565297722816, 32227, 31501, 23398, NaN
1473120145.472, 0.00660380301997066, -0.118551507592201, 0.158087372779846, 32233, 31502, 23395, NaN
1473120146.472, 0.00665382528677583, -0.119371190667152, 0.157415628433228, 32228, 31499, 23395, NaN
1473120147.472, 0.00709260767325759, -0.119145303964615, 0.157962784171104, 32245, 31499, 23394, NaN
1473120148.472, 0.00634001661092043, -0.118747875094414, 0.158045724034309, 32242, 31514, 23397, NaN
1473120149.472, 0.00671536615118384, -0.118240691721439, 0.157521545886993, 32232, 31505, 23398, NaN
1473120150.472, 0.0064798784442246, -0.118111558258533, 0.157412230968475, 32242, 31506, 23394, NaN
1473120151.472, 0.00606796704232693, -0.117398001253605, 0.157792463898659, 32231, 31511, 23406, NaN
1473120152.472, 0.00656933849677444, -0.11752400547266, 0.157414972782135, 32237, 31513, 23408, NaN
1473120153.472, 0.00703290151432157, -0.116668187081814, 0.156770065426826, 32240, 31501, 23398, NaN
1473120154.472, 0.00724939443171024, -0.1168078109622, 0.157174378633499, 32230, 31513, 23399, NaN
1473120155.48, 0.00870233867317438, -0.117093749344349, 0.158199653029442, 32237, 31494, 23401, NaN
1473120156.48, 0.0103634167462587, -0.117358297109604, 0.158146947622299, 32236, 31496, 23397, NaN
1473120157.48, 0.011554379016161, -0.116842299699783, 0.15845151245594, 32238, 31508, 23396, NaN
1473120158.48, 0.0131021924316883, -0.117840148508549, 0.1587905138731, 32243, 31517, 23393, NaN
1473120158.48, 0.0158490929752588, -0.118301719427109, 0.158709838986397, 32238, 31516, 23392, NaN
1473120159.488, 0.0172819159924984, -0.118087686598301, 0.158597230911255, 32226, 31521, 23401, NaN
1473120160.488, 0.0193701479583979, -0.118316285312176, 0.159213855862617, 32233, 31506, 23401, NaN
1473120161.488, 0.0197652354836464, -0.118714958429337, 0.15935792028904, 32232, 31516, 23396, NaN
1473120162.488, 0.0194970164448023, -0.118946321308613, 0.159931138157845, 32236, 31501, 23390, NaN
1473120162.488, 0.0182325299829245, -0.119281455874443, 0.159533366560936, 32243, 31505, 23396, NaN
1473120163.494, 0.0141639057546854, -0.119401603937149, 0.15985643863678, 32227, 31515, 23390, NaN
1473120164.494, 0.0111149605363607, -0.11900283396244, 0.161097824573517, 32230, 31499, 23403, NaN
1473120165.494, 0.0067193228751421, -0.119191825389862, 0.160600185394287, 32235, 31503, 23412, 165.247131347656
1473120166.494, 0.00198201090097427, -0.119951643049717, 0.160709783434868, 32235, 31511, 23397, NaN
1473120166.494, -0.00263401307165623, -0.119803205132484, 0.160617783665657, 32240, 31503, 23394, NaN
1473120167.498, -0.00713905086740851, -0.119412742555141, 0.160911202430725, 32238, 31511, 23393, NaN
1473120168.498, -0.0102756749838591, -0.119686350226402, 0.160947263240814, 32221, 31513, 23400, NaN
1473120169.498, -0.0115633718669415, -0.120099306106567, 0.161659851670265, 32239, 31508, 23397, NaN
1473120170.498, -0.0126770660281181, -0.119805052876472, 0.161947146058083, 32248, 31502, 23385, NaN
1473120170.498, -0.0121149849146605, -0.119360737502575, 0.162432700395584, 32244, 31498, 23394, NaN
1473120171.5, -0.0116790868341923, -0.120201468467712, 0.162346407771111, 32239, 31513, 23391, NaN
1473120172.5, -0.011022699996829, -0.12077222764492, 0.162694573402405, 32225, 31501, 23406, NaN
1473120173.5, -0.0111488085240126, -0.120266169309616, 0.16309480369091, 32255, 31506, 23392, NaN
1473120174.5, -0.0114726200699806, -0.120413064956665, 0.162700444459915, 32236, 31505, 23397, NaN
1473120175.5, -0.0115457298234105, -0.11979703605175, 0.162628665566444, 32240, 31504, 23400, NaN
1473120176.5, -0.0119621027261019, -0.119682781398296, 0.162851244211197, 32219, 31508, 23397, NaN
1473120177.5, -0.00989555940032005, -0.119796872138977, 0.164049729704857, 32232, 31504, 23400, NaN
1473120178.5, -0.00757041107863188, -0.120326526463032, 0.163541123270988, 32233, 31505, 23388, NaN
1473120179.5, -0.00394456693902612, -0.120275095105171, 0.163790389895439, 32240, 31514, 23400, NaN
1473120180.5, 0.000189914542715997, -0.120662152767181, 0.162965163588524, 32238, 31507, 23397, NaN
1473120181.508, 0.00280965631827712, -0.120801240205765, 0.163358688354492, 32237, 31510, 23416, NaN
1473120182.508, 0.00448297010734677, -0.121125191450119, 0.162703111767769, 32241, 31506, 23392, NaN
1473120183.508, 0.00634339498355985, -0.121486842632294, 0.162256076931953, 32253, 31502, 23388, NaN
1473120184.508, 0.00761911878362298, -0.1213204190135, 0.161765977740288, 32237, 31500, 23397, NaN
1473120185.508, 0.00819100718945265, -0.120805889368057, 0.160799071192741, 32234, 31509, 23387, NaN
1473120186.508, 0.00740581145510077, -0.120260685682297, 0.159589260816574, 32230, 31507, 23393, NaN
1473120187.508, 0.00581733463332057, -0.11983572691679, 0.158990398049355, 32237, 31497, 23398, NaN
1473120188.508, 0.00313281500712037, -0.11945341527462, 0.159467846155167, 32235, 31490, 23395, NaN
1473120189.508, 0.000931761635001749, -0.118688620626926, 0.159613564610481, 32235, 31509, 23393, NaN
1473120190.508, -0.00175051181577146, -0.118269518017769, 0.159314393997192, 32241, 31496, 23396, NaN
1473120191.508, -0.00386791862547398, -0.118195600807667, 0.159668892621994, 32234, 31510, 23391, NaN
1473120192.508, -0.00622931867837906, -0.118209272623062, 0.159426480531693, 32234, 31505, 23404, NaN
1473120193.508, -0.00862543471157551, -0.117564305663109, 0.159694194793701, 32234, 31498, 23390, NaN
1473120194.508, -0.00967141799628735, -0.118255093693733, 0.160072401165962, 32239, 31512, 23395, NaN
1473120195.508, -0.0104847764596343, -0.118689961731434, 0.159445554018021, 32225, 31508, 23398, NaN
1473120196.508, -0.00972932484000921, -0.1189940944314, 0.160132527351379, 32233, 31507, 23400, NaN
1473120197.508, -0.00878520123660564, -0.119356773793697, 0.160040512681007, 32232, 31510, 23397, NaN
1473120198.508, -0.00756073882803321, -0.11911154538393, 0.159903943538666, 32235, 31513, 23380, NaN
1473120199.508, -0.00516675179824233, -0.119281075894833, 0.159730359911919, 32237, 31507, 23396, NaN
1473120200.508, -0.00210217502899468, -0.118426203727722, 0.159499615430832, 32243, 31510, 23391, NaN
1473120201.508, -0.000462792959297076, -0.118546403944492, 0.15938800573349, 32242, 31502, 23392, NaN
1473120202.508, 0.00196533696725965, -0.118295058608055, 0.160163715481758, 32230, 31515, 23404, NaN
1473120203.508, 0.00394554296508431, -0.11848408728838, 0.159837394952774, 32235, 31526, 23396, NaN
1473120204.508, 0.00429670326411724, -0.119250193238258, 0.159634575247765, 32233, 31511, 23388, NaN
1473120205.508, 0.00465630367398262, -0.1184067055583, 0.160152062773705, 32239, 31509, 23398, NaN
1473120206.508, 0.00386888976208866, -0.118220292031765, 0.160262316465378, 32233, 31511, 23402, NaN
1473120207.508, 0.00197407836094499, -0.11836052685976, 0.160392999649048, 32233, 31507, 23402, NaN
1473120208.508, -0.00100091169588268, -0.117365635931492, 0.159750610589981, 32231, 31500, 23395, NaN
1473120209.508, -0.00227630720473826, -0.117592006921768, 0.159538581967354, 32232, 31524, 23398, NaN
1473120210.516, -0.00435068132355809, -0.117073275148869, 0.159512460231781, 32246, 31512, 23386, NaN
1473120211.516, -0.00533269206061959, -0.117159947752953, 0.159324929118156, 32242, 31503, 23398, NaN
1473120212.516, -0.00504183210432529, -0.116851188242435, 0.159107863903046, 32248, 31504, 23402, NaN
1473120213.516, -0.00435697333887219, -0.117481179535389, 0.15879026055336, 32234, 31505, 23404, NaN
1473120213.516, -0.0046390350908041, -0.117524445056915, 0.158122807741165, 32229, 31507, 23406, NaN
1473120214.524, -0.00436078943312168, -0.117977380752563, 0.1580590903759, 32238, 31511, 23394, NaN
1473120215.524, -0.00431235739961267, -0.117950841784477, 0.1583551466465, 32241, 31510, 23391, NaN
1473120216.524, -0.00327594392001629, -0.117158398032188, 0.157855540513992, 32220, 31518, 23386, NaN
1473120217.524, -0.000802004418801516, -0.116588845849037, 0.158041968941689, 32229, 31489, 23401, NaN
1473120217.524, 0.00156548409722745, -0.116305097937584, 0.157612204551697, 32220, 31502, 23382, NaN
1473120218.53, 0.00329563696868718, -0.116824239492416, 0.157311305403709, 32225, 31522, 23407, NaN